TimePST,TemperatureF,Dew PointF,Humidity,Sea Level PressureIn,VisibilityMPH,Wind Direction,Wind SpeedMPH,Gust SpeedMPH,PrecipitationIn,Events,Conditions,WindDirDegrees,DateUTC
12:15 AM,28.4,24.8,86,30.31,10.0,Calm,Calm,-,N/A,,Clear,0,2012-12-31 08:15:00
12:35 AM,28.4,24.8,86,30.31,9.0,Calm,Calm,-,N/A,,Clear,0,2012-12-31 08:35:00
12:55 AM,28.4,26.6,93,30.31,10.0,Calm,Calm,-,N/A,,Scattered Clouds,0,2012-12-31 08:55:00
1:15 AM,28.4,26.6,93,30.31,10.0,Calm,Calm,-,N/A,,Clear,0,2012-12-31 09:15:00
1:35 AM,28.4,26.6,93,30.31,10.0,Calm,Calm,-,N/A,,Clear,0,2012-12-31 09:35:00
1:55 AM,30.2,28.4,93,30.31,10.0,SE,3.5,-,N/A,,Clear,140,2012-12-31 09:55:00
2:15 AM,30.2,28.4,93,30.32,10.0,Calm,Calm,-,N/A,,Mostly Cloudy,0,2012-12-31 10:15:00
2:35 AM,30.2,28.4,93,30.32,10.0,Calm,Calm,-,N/A,,Scattered Clouds,0,2012-12-31 10:35:00
2:55 AM,30.2,28.4,93,30.32,10.0,Calm,Calm,-,N/A,,Clear,0,2012-12-31 10:55:00
3:15 AM,30.2,28.4,93,30.31,10.0,ESE,3.5,-,N/A,,Clear,120,2012-12-31 11:15:00
3:35 AM,30.2,28.4,93,30.30,10.0,Calm,Calm,-,N/A,,Scattered Clouds,0,2012-12-31 11:35:00
4:15 AM,30.2,26.6,86,30.29,10.0,Calm,Calm,-,N/A,,Partly Cloudy,0,2012-12-31 12:15:00
4:35 AM,30.2,26.6,86,30.29,10.0,ESE,3.5,-,N/A,,Clear,120,2012-12-31 12:35:00
4:55 AM,30.2,26.6,86,30.28,10.0,Calm,Calm,-,N/A,,Clear,0,2012-12-31 12:55:00
5:15 AM,30.2,26.6,86,30.27,10.0,SE,5.8,-,N/A,,Clear,140,2012-12-31 13:15:00
5:35 AM,32.0,26.6,80,30.27,10.0,SE,6.9,-,N/A,,Clear,140,2012-12-31 13:35:00
5:55 AM,32.0,26.6,80,30.27,10.0,SSE,3.5,-,N/A,,Partly Cloudy,150,2012-12-31 13:55:00
6:15 AM,32.0,26.6,80,30.27,10.0,SE,5.8,-,N/A,,Mostly Cloudy,140,2012-12-31 14:15:00
6:35 AM,32.0,26.6,80,30.28,10.0,SSE,5.8,-,N/A,,Overcast,150,2012-12-31 14:35:00
6:55 AM,33.8,26.6,75,30.27,10.0,ESE,3.5,-,N/A,,Overcast,120,2012-12-31 14:55:00
7:15 AM,33.8,26.6,75,30.28,10.0,SSE,6.9,-,N/A,,Overcast,160,2012-12-31 15:15:00
7:35 AM,33.8,26.6,75,30.29,10.0,SE,5.8,-,N/A,,Overcast,140,2012-12-31 15:35:00
7:55 AM,33.8,26.6,75,30.29,10.0,SE,5.8,-,N/A,,Overcast,140,2012-12-31 15:55:00
8:15 AM,33.8,26.6,75,30.30,10.0,SSE,3.5,-,N/A,,Overcast,160,2012-12-31 16:15:00
8:35 AM,33.8,26.6,75,30.30,10.0,SSE,4.6,-,N/A,,Overcast,150,2012-12-31 16:35:00
8:55 AM,33.8,26.6,75,30.31,10.0,SE,4.6,-,N/A,,Overcast,140,2012-12-31 16:55:00
9:15 AM,33.8,26.6,75,30.30,10.0,SE,6.9,-,N/A,,Overcast,140,2012-12-31 17:15:00
9:35 AM,33.8,26.6,75,30.31,10.0,SE,5.8,-,N/A,,Overcast,140,2012-12-31 17:35:00
9:55 AM,33.8,26.6,75,30.32,10.0,SSE,3.5,-,N/A,,Overcast,150,2012-12-31 17:55:00
10:15 AM,33.8,26.6,75,30.32,10.0,Calm,Calm,-,N/A,,Overcast,0,2012-12-31 18:15:00
10:35 AM,33.8,26.6,75,30.33,10.0,SE,4.6,-,N/A,,Overcast,140,2012-12-31 18:35:00
10:55 AM,33.8,26.6,75,30.33,10.0,SE,3.5,-,N/A,,Overcast,130,2012-12-31 18:55:00
11:15 AM,33.8,26.6,75,30.33,9.0,ESE,3.5,-,N/A,,Overcast,110,2012-12-31 19:15:00
11:35 AM,33.8,26.6,75,30.33,10.0,Calm,Calm,-,N/A,,Overcast,0,2012-12-31 19:35:00
11:55 AM,33.8,26.6,75,30.32,3.0,Calm,Calm,-,N/A,,Overcast,0,2012-12-31 19:55:00
12:15 PM,33.8,28.4,81,30.32,1.2,ESE,3.5,-,N/A,,Overcast,110,2012-12-31 20:15:00
12:35 PM,33.8,28.4,81,30.31,1.0,Calm,Calm,-,N/A,,Overcast,0,2012-12-31 20:35:00
12:55 PM,33.8,28.4,81,30.30,2.0,SSE,3.5,-,N/A,,Overcast,150,2012-12-31 20:55:00
1:15 PM,33.8,30.2,87,30.31,1.2,SSE,3.5,-,N/A,,Overcast,160,2012-12-31 21:15:00
1:35 PM,33.8,30.2,87,30.31,1.0,Calm,Calm,-,0.01,,Overcast,0,2012-12-31 21:35:00
1:55 PM,33.8,30.2,87,30.32,1.0,Calm,Calm,-,0.01,,Overcast,0,2012-12-31 21:55:00
2:35 PM,33.8,30.2,87,30.33,1.2,Calm,Calm,-,0.02,,Overcast,0,2012-12-31 22:35:00
2:55 PM,33.8,30.2,87,30.33,1.2,Calm,Calm,-,0.03,,Overcast,0,2012-12-31 22:55:00
3:15 PM,33.8,30.2,87,30.33,1.8,Calm,Calm,-,0.01,,Overcast,0,2012-12-31 23:15:00
3:35 PM,33.8,30.2,87,30.34,3.0,Calm,Calm,-,0.03,,Overcast,0,2012-12-31 23:35:00
3:55 PM,33.8,30.2,87,30.34,5.0,Calm,Calm,-,0.03,,Overcast,0,2012-12-31 23:55:00
4:15 PM,33.8,30.2,87,30.34,6.0,Calm,Calm,-,0.01,,Overcast,0,2013-01-01 00:15:00
4:35 PM,33.8,30.2,87,30.34,5.0,Calm,Calm,-,0.01,,Mostly Cloudy,0,2013-01-01 00:35:00
4:55 PM,33.8,30.2,87,30.34,7.0,SE,3.5,-,0.01,,Scattered Clouds,130,2013-01-01 00:55:00
5:15 PM,33.8,30.2,87,30.34,10.0,Calm,Calm,-,N/A,,Overcast,0,2013-01-01 01:15:00
5:35 PM,33.8,30.2,87,30.35,10.0,Calm,Calm,-,N/A,,Overcast,0,2013-01-01 01:35:00
5:55 PM,33.8,30.2,87,30.36,9.0,ESE,4.6,-,N/A,,Overcast,110,2013-01-01 01:55:00
6:15 PM,33.8,30.2,87,30.36,8.0,Calm,Calm,-,N/A,,Overcast,0,2013-01-01 02:15:00
6:35 PM,33.8,30.2,87,30.37,10.0,Calm,Calm,-,N/A,,Overcast,0,2013-01-01 02:35:00
6:55 PM,33.8,30.2,87,30.38,7.0,Calm,Calm,-,N/A,,Overcast,0,2013-01-01 02:55:00
7:15 PM,33.8,30.2,87,30.39,10.0,East,3.5,-,N/A,,Overcast,80,2013-01-01 03:15:00
7:35 PM,33.8,30.2,87,30.38,9.0,East,5.8,-,N/A,,Overcast,90,2013-01-01 03:35:00
7:55 PM,33.8,30.2,87,30.39,10.0,Calm,Calm,-,N/A,,Overcast,0,2013-01-01 03:55:00
8:15 PM,33.8,30.2,87,30.40,10.0,NNE,3.5,-,N/A,,Overcast,30,2013-01-01 04:15:00
8:35 PM,33.8,30.2,87,30.41,5.0,Calm,Calm,-,N/A,,Overcast,0,2013-01-01 04:35:00
8:55 PM,33.8,30.2,87,30.41,5.0,Calm,Calm,-,N/A,,Overcast,0,2013-01-01 04:55:00
9:15 PM,33.8,30.2,87,30.41,4.0,Calm,Calm,-,N/A,,Mostly Cloudy,0,2013-01-01 05:15:00
9:35 PM,32.0,28.4,87,30.41,3.0,Calm,Calm,-,N/A,,Scattered Clouds,0,2013-01-01 05:35:00
9:55 PM,32.0,28.4,87,30.42,3.0,Calm,Calm,-,N/A,,Mostly Cloudy,0,2013-01-01 05:55:00
10:15 PM,32.0,30.2,93,30.43,4.0,Calm,Calm,-,N/A,,Overcast,0,2013-01-01 06:15:00
10:35 PM,32.0,30.2,93,30.44,4.0,NNW,5.8,-,N/A,,Overcast,330,2013-01-01 06:35:00
10:55 PM,33.8,30.2,87,30.44,7.0,Calm,Calm,-,N/A,,Overcast,0,2013-01-01 06:55:00
11:15 PM,33.8,30.2,87,30.44,6.0,Calm,Calm,-,N/A,,Overcast,0,2013-01-01 07:15:00
11:35 PM,33.8,30.2,87,30.45,7.0,Calm,Calm,-,N/A,,Overcast,0,2013-01-01 07:35:00
11:55 PM,33.8,30.2,87,30.44,9.0,ESE,3.5,-,N/A,,Overcast,120,2013-01-01 07:55:00